Torna al catalogo

STARLINK-30611

AttivoComunicazioniVLEO
NORAD 58108·PAYLOAD·🇺🇸 United States

Lanciato Oct 21, 2023 da Vandenberg Space Force Base

Loading…

Prossimi Passaggi (prossime 24 ore)

TLE

AggiornatoSource: CelesTrak SupGP

Epoca: Sep 15, 2026, 01:44 UTC

1 58108C 23161M   26258.07270833  .00062688  00000+0  18519-2 0  2581
2 58108  53.1590 348.9130 0001138  96.3039 237.2466 15.34363743    18

Traccia STARLINK-30611 in tempo reale con AllMySat

Download on the App Store